Regional Weather Roundup
Issued by NWS

Home | Current Version | Previous Version | Text Only | Print | Product List | Glossary Off
Versions: 1 2 3 4 5 6 7 8 9 10 11 12 13 14 15 16 17 18 19 20 21 22 23 24 25 26 27 28 29 30 31 32 33 34 35 36 37 38 39 40 41 42 43 44 45 46 47 48 49 50

524
ASUS43 KMPX 210510
RWRMN
WEATHER ROUNDUP FOR MINNESOTA
NATIONAL WEATHER SERVICE TWIN CITIES/CHANHASSEN MN
1100 PM CST TUE FEB 20 2018


NOTE: "FAIR" INDICATES FEW OR NO CLOUDS BELOW 12,000 FEET WITH NO
SIGNIFICANT WEATHER AND/OR OBSTRUCTIONS TO VISIBILITY. N/A MEANS
CURRENT SKY AND/OR WEATHER CONDITIONS ARE NOT AVAILABLE.

MNZ060>063-068>070-210600-
   Twin Cities Metro

CITY           SKY/WX    TMP DP  RH WIND       PRES   REMARKS
TWIN CITIES    FAIR       9   2  73 NW12      30.34R WCI  -6
ST PAUL        FAIR      10   2  69 NW15      30.35R WCI  -7
CRYSTAL        FAIR       8   0  69 NW13      30.32R WCI  -8
BLAINE         FAIR       9   1  72 W13       30.32R WCI  -7
LAKEVILLE      FAIR       7   1  78 NW10      30.33R WCI  -8
EDEN PRAIRIE   FAIR       9   1  70 NW10      30.33R WCI  -5
SOUTH ST PAUL  FAIR      10   2  70 W9        30.34R WCI  -3
LAKE ELMO      FAIR      10   3  72 W8        30.33R WCI  -1
$$
MNZ001>005-007-008-013>017-022>024-027-028-210600-
   Northwest Minnesota

CITY           SKY/WX    TMP DP  RH WIND       PRES   REMARKS
BEMIDJI        FAIR       0  -4  82 SW6       30.19R WCI -12
HALLOCK        FAIR       1  -4  78 S9        30.18S WCI -14
ROSEAU         FAIR       3  -2  78 SW10      30.15S WCI -12
WARROAD        FAIR       1  -2  85 SW7       30.15R WCI -11
THIEF RVR FALL FAIR       0  -5  79 SW14      30.21S WCI -19
CROOKSTON      FAIR       0  -6  78 SW8       30.25R WCI -15
FOSSTON        FAIR      -8 -11  84 SW9       30.22R WCI -25
DETROIT LAKES  FAIR       1  -2  85 W6        30.25R WCI -10
MOORHEAD       FAIR      -4  -9  77 SW7       30.30S WCI -18
PARK RAPIDS    FAIR      -7 -10  87 SW5       30.21R WCI -18
MAHNOMEN       FAIR      -5  -8  84 SW9       30.23S WCI -21
$$
MNZ006-009>011-018-025>026-210600-
   North Central Minnesota

CITY           SKY/WX    TMP DP  RH WIND       PRES   REMARKS
BAUDETTE       FAIR       1  -3  83 SW6       30.13R WCI -10
FLAG ISLAND    FAIR       0  -4  85 SW7       30.12S WCI -13
INTL FALLS     CLOUDY     5   0  79 W8        30.15R WCI  -8
WASKISH        FAIR       1  -2  85 SW10      30.17S WCI -14
BIG FORK       FAIR      -6  -9  84 S3        30.18R
LONGVILLE      FAIR      -8 -11  84 S3        30.23R
GRAND RAPIDS   FAIR       2  -2  83 CALM      30.23R
CRANE LAKE     CLOUDY     7   1  78 SW3       30.18R
ORR            MOCLDY     5  -2  72 W6        30.13S WCI  -6
COOK             N/A      7   1  78 W14       30.17R WCI -10
WALKER         FAIR       2  -3  79 SW7       30.21R WCI -11
$$
MNZ012-019>021-037-210600-
   Northeast Minnesota

CITY           SKY/WX    TMP DP  RH WIND       PRES   REMARKS
DULUTH         MOCLDY     9   2  73 NW14      30.16R WCI  -7
ELY            CLOUDY     7   3  85 W6        30.13R WCI  -3
HIBBING        MOCLDY     4  -1  80 W8        30.18R WCI  -9
EVELETH        MOCLDY   N/A N/A N/A W9        30.18R
DULUTH HARBOR  FAIR      10   3  72 W13       30.25R WCI  -5
TWO HARBORS    FLURRIES  12   5  73 W6        30.15R WCI   3
GRAND MARAIS     N/A     13   4  67 W8        30.17R WCI   2
G MARAIS ARPRT LGT SNOW   3  -2  78 W9G17     30.04R WCI -11
$$
MNZ029>031-032-039>041-046>048-054>057-064-210600-
   West Central Minnesota

CITY           SKY/WX    TMP DP  RH WIND       PRES   REMARKS
FERGUS FALLS   FAIR      -6  -9  84 W8        30.32R WCI -21
WHEATON        PTCLDY     1  -6  71 W13       30.35R WCI -16
MORRIS         CLOUDY    -2  -9  71 W6        30.32R WCI -14
ALEXANDRIA     FAIR       2  -3  80 W9        30.28R WCI -13
ELBOW LAKE     FAIR      -3  -7  82 SW8       30.31R WCI -18
WADENA         FAIR       0  -6  78 W10       30.25R WCI -17
GLENWOOD       FAIR       0  -4  85 W6        30.30R WCI -12
APPLETON       CLOUDY     0  -8  71 W9        30.36R WCI -16
BENSON         CLOUDY    -2  -8  78 NW8       30.34R WCI -17
ORTONVILLE     CLEAR      3  -4  72 W8        30.35R WCI -10
MADISON        CLEAR      5  -2  72 W10       30.37R WCI -10
WILLMAR        FAIR       0  -4  85 W6        30.36R WCI -12
$$
MNZ033>034-036-042>043-049>051-058-059-210600-
   Central Minnesota

CITY           SKY/WX    TMP DP  RH WIND       PRES   REMARKS
ST CLOUD       FAIR       3  -1  83 W7        30.31R WCI  -9
SAUK CENTRE    FAIR      -2  -6  84 W8        30.31R WCI -17
PAYNESVILLE    FAIR      -3  -6  88 W8        30.32R WCI -18
AITKIN         FAIR       1  -4  78 W3        30.25R
PINE RIVER     FAIR      -6  -9  84 CALM      30.28R
BRAINERD       FAIR       2  -4  76 W7        30.27R WCI -11
STAPLES        FAIR       0  -4  85 W6        30.26R WCI -12
LONG PRAIRIE   FAIR       0  -4  85 S5        30.29R WCI -10
LITTLE FALLS   FAIR       0  -8  71 CALM      30.30R
LITCHFIELD     FAIR       3   0  85 W3        30.34R
BUFFALO        FAIR       6   0  77 W5        30.35R WCI  -3
MAPLE LAKE     FAIR       6   1  83 W5        30.34R WCI  -3
HUTCHINSON     FAIR       2  -1  84 W7        30.35R WCI -10
$$
MNZ037-044-045-052-053-210600-
   East Central Minnesota

CITY           SKY/WX    TMP DP  RH WIND       PRES   REMARKS
PRINCETON      FAIR       5   0  78 W3        30.31R
MORA           FAIR       7   0  72 NW8       30.30R WCI  -6
CAMBRIDGE        N/A      9   0  66 W9        30.32R WCI  -5
RUSH CITY      FAIR       6  -1  73 W5        30.30R WCI  -3
MOOSE LAKE     FAIR       9   0  66 W7        30.23R WCI  -3
HINCKLEY       FAIR       9   1  72 W7        30.28R WCI  -3
CLOQUET        FAIR       7   0  72 W8        30.20R WCI  -6
MCGREGOR       FAIR       5   1  85 W6        30.25R WCI  -6
$$
MNZ071>073-080-081-089-090-097-098-210600-
   Southwest Minnesota

CITY           SKY/WX    TMP DP  RH WIND       PRES   REMARKS
MONTEVIDEO     CLEAR      1  -4  78 NW5       30.37R WCI  -8
GRANITE FALLS  CLEAR      1  -4  80 W9        30.38S WCI -14
CANBY          PTCLDY     6  -1  73 NW12      30.37R WCI -10
MARSHALL       CLOUDY    -1  -7  75 W12       30.37R WCI -18
REDWOOD FALLS  CLOUDY     1  -3  83 W7        30.37R WCI -12
OLIVIA         PTCLDY     0  -4  85 W6        30.35R WCI -12
PIPESTONE      CLOUDY     1  -2  85 NW7       30.34R WCI -11
WORTHINGTON    CLOUDY     3  -2  79 W10       30.36R WCI -12
JACKSON        CLOUDY     5   0  78 W6        30.36R WCI  -6
TRACY          CLOUDY     6   1  78 W10       30.34S WCI  -9
SLAYTON        PTCLDY     2  -3  79 W7        30.34R WCI -11
$$
MNZ065>067-074>077-082>085-091>093-210600-
   South Central Minnesota

CITY           SKY/WX    TMP DP  RH WIND       PRES   REMARKS
MANKATO        FAIR       8   3  80 NW13      30.37R WCI  -8
NEW ULM        CLOUDY     1  -2  85 W8        30.38R WCI -12
ST JAMES       CLOUDY     5   0  78 W7        30.39R WCI  -7
FAIRMONT       CLOUDY     7   3  84 NW13      30.37R WCI  -9
GLENCOE        FAIR       6   2  82 W5        30.35R WCI  -3
FARIBAULT      FAIR       9   3  78 W6        30.34R WCI  -1
OWATONNA       FAIR       9   3  78 CALM      30.33R
WASECA         FAIR      10   5  79 NW9       30.35R WCI  -2
ALBERT LEA     FAIR      10   3  72 NW5       30.32S WCI   2
$$
MNZ078>079-086>088-094>096-210600-
   Southeast Minnesota

CITY           SKY/WX    TMP DP  RH WIND       PRES   REMARKS
ROCHESTER      FAIR       9   5  84 NW17G26   30.28R WCI  -9
RED WING       FAIR      12   3  67 W10       30.32R WCI  -1
STANTON        FAIR      10   3  75 W8        30.33R WCI  -3
DODGE CENTER   FAIR       9   1  72 W8        30.29R WCI  -4
WINONA         FAIR      16  10  79 NW9       30.30R WCI   4
AUSTIN         FAIR       9   3  78 NW12      30.31R WCI  -6
PRESTON        FAIR      10   6  82 NW10      30.28R WCI  -4
$$
ABBREVIATIONS USED IN REMARKS
   TC - TEMPERATURES IN CELSIUS
  WCI - WIND CHILL INDEX
   HX - HEAT INDEX
  VSB - VISIBILITY
$$




USA.gov is the U.S. government's official web portal to all federal, state and local government web resources and services.